Location: Badlands Tank
(34.7185°N, 107.0376°W)
Time: 14:28:20
(UTC+00:00)

Meteor 2-5 Rocket - Pass Details

Date: 14 November 2025
Orbit: 832 x 911 km, 81.2° (Epoch: 09 December)

Event Time Altitude Azimuth Distance (km) Brightness Sun altitude
Exits shadow 10:13:49 17° 51° (NE) 2,099 6.1 -42.7°
Drops below altitude 10° 10:15:35 10° 37° (NE) 2,562 6.6 -42.3°
Sets 10:18:27 0° 24° (NNE) 3,493 7.2 -41.7°
